Home > Weather > Moose Jaw > Past weeks

Flag for Canada Past Weather in Moose Jaw, Saskatchewan, Canada — Yesterday and Last 2 Weeks

Now
59 °F

Clear.


Feels Like: 57 °F
Forecast: 56 / 78 °F
Wind: 12 mph from West

Location: Regina Weather Station

Current Time: Jul 24, 2016 at 12:56:36 AM

Latest Report: Jul 24, 2016 at 12:00 AM


Visibility: 15 mi

Pressure: 29.93 "Hg (28.01 "Hg at 560m altitude)

Humidity: 88%

Dew Point: 55 °F

Location of Moose JawLocation

Past Weather in Moose Jaw — Graph

°F

Moose Jaw Temperature Yesterday

Maximum temperature yesterday: 72 °F (at 6:00 PM)
Minimum temperature yesterday: 57 °F (at 11:00 PM)
Average temperature yesterday: 66 °F

High & Low Weather Summary for the Past Weeks

 TemperatureHumidityPressure
High86 °F (Jul 19, 3:00 PM)100% (Jul 11, 4:00 AM)30.18 "Hg (Jul 11, 4:00 AM)
Low48 °F (Jul 14, 4:00 AM)28% (Jul 22, 2:00 PM)29.39 "Hg (Jul 11, 11:00 PM)
Average66 °F77%29.87 "Hg
* Reported Jul 8 11:00 PM — Jul 23 11:00 PM, Moose Jaw, Weather by CustomWeather, © 2016

Note: Actual official high and low records may vary slightly from our data, if they occured in-between our weather recording intervals... More about our weather records

Advertising

Moose Jaw Weather History for the Previous 24 Hours

Scroll right to see more
 ConditionsComfort  
Time TempWeatherWind HumidityBarometerVisibility
11:00 PM
Sat, Jul 23
57 °FClear.10 mph94%29.92 "Hg15 mi
10:00 PM59 °FPassing clouds.9 mph88%29.92 "Hg15 mi
9:00 PM64 °FPassing clouds.12 mph78%29.88 "Hg15 mi
8:00 PM68 °FPassing clouds.14 mph69%29.86 "Hg15 mi
7:00 PM70 °FPassing clouds.16 mph69%29.83 "Hg15 mi
6:00 PM72 °FScattered clouds.18 mph69%29.82 "Hg15 mi
5:00 PM68 °FScattered clouds.15 mph78%29.81 "Hg15 mi
4:46 PM66 °FPartly sunny.16 mph78%29.81 "Hg15 mi
4:00 PM68 °FBroken clouds.22 mph83%29.79 "Hg15 mi
3:00 PM66 °FSprinkles. Partly sunny.24 mph83%29.76 "Hg15 mi
2:00 PM70 °FPartly sunny.23 mph69%29.75 "Hg15 mi
1:00 PM70 °FBroken clouds.18 mph73%29.72 "Hg15 mi
12:00 PM68 °FPartly sunny.16 mph78%29.70 "Hg15 mi
11:00 AM68 °FPartly sunny.20 mph78%29.72 "Hg15 mi
10:00 AM66 °FOvercast.16 mph83%29.72 "Hg15 mi
9:00 AM64 °FOvercast.17 mph88%29.73 "Hg15 mi
8:00 AM66 °FLow clouds.17 mph94%29.68 "Hg15 mi
7:00 AM66 °FSprinkles. Partly sunny.17 mph94%29.68 "Hg15 mi
6:03 AM64 °FSprinkles. Broken clouds.15 mph94%29.71 "Hg15 mi
6:00 AM64 °FScattered showers. Broken clouds.14 mph94%29.71 "Hg15 mi
5:00 AM63 °FScattered showers. Overcast.18 mph88%29.72 "Hg15 mi
4:00 AM63 °FPassing clouds.20 mph88%29.72 "Hg15 mi
3:00 AM63 °FPassing clouds.21 mph88%29.78 "Hg15 mi
2:00 AM63 °FPartly cloudy.20 mph88%29.83 "Hg15 mi
1:00 AM64 °FThunderstorms. Overcast.17 mph88%29.85 "Hg10 mi
12:52 AM63 °FThunderstorms. Mostly cloudy.25 mph94%29.85 "Hg4 mi
12:00 AM68 °FThunderstorms. Mostly cloudy.18 mph83%29.76 "Hg15 mi
Weather by CustomWeather, © 2016

See weather overviewHow to use our weather pages